START_TIME,STEP,MOV.,P11,t_acc.,P23,t_acc.,P27,t_acc.,A4,t_acc.
1979-07-15 03:00:23.340 ,1,0,0.,4.8,0.,4.8,0.,4.8,0.,4.8
1979-07-15 03:00:28.140 ,1,0,2.,4.8,0.,4.8,0.,4.8,0.,4.8
1979-07-15 03:00:32.940 ,1,0,0.,4.8,0.,4.8,0.,4.8,0.,4.8
1979-07-15 03:00:37.740 ,1,0,0.,4.8,0.,4.8,0.,4.8,1.,4.8
1979-07-15 03:00:42.540 ,1,0,0.,4.8,0.,4.8,0.,4.8,0.,4.8
1979-07-15 03:00:47.340 ,2,0,0.,4.8,0.,4.8,0.,4.8,0.,4.8
1979-07-15 03:00:52.140 ,2,0,1.,4.8,0.,4.8,0.,4.8,0.,4.8
1979-07-15 03:00:56.940 ,2,0,0.,4.8,0.,4.8,0.,4.8,0.,4.8
1979-07-15 03:01:01.740 ,2,0,0.,4.8,0.,4.8,0.,4.8,0.,4.8
1979-07-15 03:01:06.540 ,2,0,1.,4.8,0.,4.8,0.,4.8,0.,4.8
1979-07-15 03:01:11.340 ,2,0,0.,4.8,0.,4.8,0.,4.8,0.,4.8
1979-07-15 03:01:16.140 ,2,0,0.,4.8,0.,4.8,0.,4.8,0.,4.8
1979-07-15 03:01:20.940 ,2,0,0.,4.8,0.,4.8,0.,4.8,0.,4.8
1979-07-15 03:01:25.740 ,2,0,1.,4.8,0.,4.8,0.,4.8,0.,4.8
1979-07-15 03:01:30.540 ,2,0,1.,4.8,0.,4.8,0.,4.8,0.,4.8
1979-07-15 03:01:35.340 ,3,0,0.,4.8,0.,4.8,0.,4.8,0.,4.8
1979-07-15 03:01:40.140 ,3,0,1.,4.8,0.,4.8,0.,4.8,0.,4.8
1979-07-15 03:01:44.940 ,3,0,2.,4.8,0.,4.8,0.,4.8,0.,4.8
1979-07-15 03:01:49.740 ,3,0,1.,4.8,0.,4.8,0.,4.8,0.,4.8
1979-07-15 03:01:54.540 ,3,0,0.,4.8,0.,4.8,0.,4.8,0.,4.8
1979-07-15 03:01:59.340 ,3,0,1.,4.8,0.,4.8,0.,4.8,0.,4.8
1979-07-15 03:02:04.140 ,3,0,4.,4.8,0.,4.8,0.,4.8,0.,4.8
1979-07-15 03:02:08.940 ,3,0,2.,4.8,0.,4.8,0.,4.8,0.,4.8
1979-07-15 03:02:13.740 ,3,0,2.,4.8,0.,4.8,0.,4.8,0.,4.8
1979-07-15 03:02:18.540 ,3,0,2.,4.8,0.,4.8,0.,4.8,0.,4.8
1979-07-15 03:02:23.340 ,4,0,1.,4.8,0.,4.8,0.,4.8,0.,4.8
1979-07-15 03:02:28.140 ,4,0,1.,4.8,0.,4.8,0.,4.8,0.,4.8
1979-07-15 03:02:32.940 ,4,0,1.,4.8,0.,4.8,0.,4.8,1.,4.8
1979-07-15 03:02:37.740 ,4,0,1.,4.8,0.,4.8,0.,4.8,0.,4.8
1979-07-15 03:02:42.540 ,4,0,1.,4.8,0.,4.8,0.,4.8,0.,4.8
1979-07-15 03:02:47.340 ,4,0,3.,4.8,0.,4.8,0.,4.8,0.,4.8
1979-07-15 03:02:52.140 ,4,0,0.,4.8,0.,4.8,0.,4.8,0.,4.8
1979-07-15 03:02:56.940 ,4,0,1.,4.8,0.,4.8,0.,4.8,0.,4.8
1979-07-15 03:03:01.740 ,4,0,3.,4.8,0.,4.8,0.,4.8,1.,4.8
1979-07-15 03:03:06.540 ,4,0,1.,4.8,0.,4.8,0.,4.8,0.,4.8
1979-07-15 03:03:11.340 ,5,0,0.,4.8,0.,4.8,0.,4.8,0.,4.8
1979-07-15 03:03:16.140 ,5,0,2.,4.8,0.,4.8,0.,4.8,0.,4.8
1979-07-15 03:03:20.940 ,5,0,2.,4.8,0.,4.8,0.,4.8,0.,4.8
1979-07-15 03:03:25.740 ,5,0,1.,4.8,0.,4.8,0.,4.8,0.,4.8
1979-07-15 03:03:30.540 ,5,0,0.,4.8,0.,4.8,0.,4.8,0.,4.8
1979-07-15 03:03:35.340 ,5,0,1.,4.8,0.,4.8,0.,4.8,0.,4.8
1979-07-15 03:03:40.140 ,5,0,2.,4.8,0.,4.8,0.,4.8,0.,4.8
1979-07-15 03:03:44.940 ,5,0,0.,4.8,0.,4.8,0.,4.8,0.,4.8
1979-07-15 03:03:49.740 ,5,0,0.,4.8,0.,4.8,0.,4.8,0.,4.8
1979-07-15 03:03:54.540 ,5,0,2.,4.8,0.,4.8,0.,4.8,0.,4.8
1979-07-15 03:03:59.340 ,6,0,0.,4.8,0.,4.8,0.,4.8,0.,4.8
1979-07-15 03:04:04.140 ,6,0,0.,4.8,0.,4.8,0.,4.8,0.,4.8
1979-07-15 03:04:08.940 ,6,0,0.,4.8,0.,4.8,0.,4.8,1.,4.8
1979-07-15 03:04:13.740 ,6,0,3.,4.8,0.,4.8,0.,4.8,0.,4.8
1979-07-15 03:04:18.540 ,6,0,0.,4.8,0.,4.8,0.,4.8,0.,4.8
1979-07-15 03:04:23.340 ,6,0,1.,4.8,0.,4.8,0.,4.8,0.,4.8
1979-07-15 03:04:28.140 ,6,0,1.,4.8,0.,4.8,0.,4.8,0.,4.8
1979-07-15 03:04:32.940 ,6,0,1.,4.8,0.,4.8,0.,4.8,0.,4.8
1979-07-15 03:04:37.740 ,6,0,2.,4.8,0.,4.8,0.,4.8,0.,4.8
1979-07-15 03:04:42.540 ,6,0,1.,4.8,0.,4.8,0.,4.8,1.,4.8
1979-07-15 03:04:47.340 ,7,0,3.,4.8,0.,4.8,0.,4.8,0.,4.8
1979-07-15 03:04:52.140 ,7,0,0.,4.8,0.,4.8,0.,4.8,0.,4.8
1979-07-15 03:04:56.940 ,7,0,1.,4.8,0.,4.8,0.,4.8,0.,4.8
1979-07-15 03:05:01.740 ,7,0,1.,4.8,0.,4.8,0.,4.8,0.,4.8
1979-07-15 03:05:06.540 ,7,0,1.,4.8,0.,4.8,0.,4.8,0.,4.8
1979-07-15 03:05:11.340 ,7,0,1.,4.8,0.,4.8,0.,4.8,0.,4.8
1979-07-15 03:05:16.140 ,7,0,1.,4.8,0.,4.8,0.,4.8,0.,4.8
1979-07-15 03:05:20.940 ,7,0,3.,4.8,0.,4.8,0.,4.8,0.,4.8
1979-07-15 03:05:25.740 ,7,0,0.,4.8,0.,4.8,0.,4.8,0.,4.8
1979-07-15 03:05:30.540 ,7,0,1.,4.8,0.,4.8,0.,4.8,0.,4.8
1979-07-15 03:05:35.340 ,7,0,4.,4.8,0.,4.8,0.,4.8,0.,4.8
1979-07-15 03:05:40.140 ,7,0,0.,4.8,0.,4.8,0.,4.8,0.,4.8
1979-07-15 03:05:44.940 ,7,0,2.,4.8,0.,4.8,0.,4.8,0.,4.8
1979-07-15 03:05:49.740 ,7,0,0.,4.8,0.,4.8,0.,4.8,0.,4.8
1979-07-15 03:05:54.540 ,7,0,1.,4.8,0.,4.8,0.,4.8,0.,4.8
1979-07-15 03:05:59.340 ,7,0,1.,4.8,0.,4.8,0.,4.8,0.,4.8
1979-07-15 03:06:04.140 ,7,0,1.,4.8,0.,4.8,0.,4.8,0.,4.8
1979-07-15 03:06:08.940 ,7,0,0.,4.8,0.,4.8,0.,4.8,0.,4.8
1979-07-15 03:06:13.740 ,7,0,0.,4.8,0.,4.8,0.,4.8,0.,4.8
1979-07-15 03:06:18.540 ,7,0,0.,4.8,0.,4.8,0.,4.8,0.,4.8
1979-07-15 03:06:23.340 ,6,0,0.,4.8,0.,4.8,0.,4.8,0.,4.8
1979-07-15 03:06:28.140 ,6,0,1.,4.8,0.,4.8,0.,4.8,0.,4.8
1979-07-15 03:06:32.940 ,6,0,0.,4.8,0.,4.8,0.,4.8,0.,4.8
1979-07-15 03:06:37.740 ,6,0,1.,4.8,0.,4.8,0.,4.8,0.,4.8
1979-07-15 03:06:42.540 ,6,0,2.,4.8,0.,4.8,0.,4.8,0.,4.8
1979-07-15 03:06:47.340 ,6,0,1.,4.8,0.,4.8,0.,4.8,0.,4.8
1979-07-15 03:06:52.140 ,6,0,1.,4.8,0.,4.8,0.,4.8,0.,4.8
1979-07-15 03:06:56.940 ,6,0,3.,4.8,0.,4.8,0.,4.8,0.,4.8
1979-07-15 03:07:01.740 ,6,0,0.,4.8,0.,4.8,0.,4.8,0.,4.8
1979-07-15 03:07:06.540 ,6,0,0.,4.8,0.,4.8,0.,4.8,0.,4.8
1979-07-15 03:07:11.340 ,5,0,1.,4.8,0.,4.8,0.,4.8,0.,4.8
1979-07-15 03:07:16.140 ,5,0,1.,4.8,0.,4.8,0.,4.8,0.,4.8
1979-07-15 03:07:20.940 ,5,0,0.,4.8,0.,4.8,0.,4.8,0.,4.8
1979-07-15 03:07:25.740 ,5,0,1.,4.8,0.,4.8,0.,4.8,0.,4.8
1979-07-15 03:07:30.540 ,5,0,2.,4.8,0.,4.8,0.,4.8,0.,4.8
1979-07-15 03:07:35.340 ,5,0,1.,4.8,0.,4.8,0.,4.8,0.,4.8
1979-07-15 03:07:40.140 ,5,0,2.,4.8,0.,4.8,0.,4.8,0.,4.8
1979-07-15 03:07:44.940 ,5,0,1.,4.8,0.,4.8,0.,4.8,0.,4.8
1979-07-15 03:07:49.740 ,5,0,2.,4.8,0.,4.8,0.,4.8,0.,4.8
1979-07-15 03:07:54.540 ,5,0,1.,4.8,0.,4.8,0.,4.8,0.,4.8
1979-07-15 03:07:59.340 ,4,0,1.,4.8,0.,4.8,0.,4.8,0.,4.8
1979-07-15 03:08:04.140 ,4,0,0.,4.8,0.,4.8,0.,4.8,0.,4.8
1979-07-15 03:08:08.940 ,4,0,1.,4.8,0.,4.8,0.,4.8,0.,4.8
1979-07-15 03:08:13.740 ,4,0,1.,4.8,0.,4.8,0.,4.8,0.,4.8
1979-07-15 03:08:18.540 ,4,0,1.,4.8,0.,4.8,0.,4.8,0.,4.8
1979-07-15 03:08:23.340 ,4,0,0.,4.8,0.,4.8,0.,4.8,0.,4.8
1979-07-15 03:08:28.140 ,4,0,1.,4.8,0.,4.8,0.,4.8,0.,4.8
1979-07-15 03:08:32.940 ,4,0,1.,4.8,0.,4.8,0.,4.8,0.,4.8
1979-07-15 03:08:37.740 ,4,0,0.,4.8,0.,4.8,0.,4.8,0.,4.8
1979-07-15 03:08:42.540 ,4,0,1.,4.8,0.,4.8,0.,4.8,0.,4.8
1979-07-15 03:08:47.340 ,3,0,0.,4.8,0.,4.8,0.,4.8,0.,4.8
1979-07-15 03:08:52.140 ,3,0,1.,4.8,0.,4.8,0.,4.8,0.,4.8
1979-07-15 03:08:56.940 ,3,0,1.,4.8,0.,4.8,0.,4.8,0.,4.8
1979-07-15 03:09:01.740 ,3,0,0.,4.8,0.,4.8,0.,4.8,0.,4.8
1979-07-15 03:09:06.540 ,3,0,1.,4.8,0.,4.8,0.,4.8,1.,4.8
1979-07-15 03:09:11.340 ,3,0,1.,4.8,0.,4.8,0.,4.8,0.,4.8
1979-07-15 03:09:16.140 ,3,0,0.,4.8,0.,4.8,0.,4.8,0.,4.8
1979-07-15 03:09:20.940 ,3,0,2.,4.8,0.,4.8,0.,4.8,0.,4.8
1979-07-15 03:09:25.740 ,3,0,4.,4.8,0.,4.8,0.,4.8,1.,4.8
1979-07-15 03:09:30.540 ,3,0,1.,4.8,0.,4.8,0.,4.8,0.,4.8
1979-07-15 03:09:35.340 ,2,0,0.,4.8,0.,4.8,0.,4.8,0.,4.8
1979-07-15 03:09:40.140 ,2,0,1.,4.8,0.,4.8,0.,4.8,0.,4.8
1979-07-15 03:09:44.940 ,2,0,0.,4.8,0.,4.8,0.,4.8,0.,4.8
1979-07-15 03:09:49.740 ,2,0,2.,4.8,0.,4.8,0.,4.8,0.,4.8
1979-07-15 03:09:54.540 ,2,0,1.,4.8,0.,4.8,0.,4.8,0.,4.8
1979-07-15 03:09:59.340 ,2,0,2.,4.8,0.,4.8,0.,4.8,0.,4.8
1979-07-15 03:10:04.140 ,2,0,1.,4.8,0.,4.8,0.,4.8,0.,4.8
1979-07-15 03:10:08.940 ,2,0,0.,4.8,0.,4.8,0.,4.8,0.,4.8
1979-07-15 03:10:13.740 ,2,0,1.,4.8,0.,4.8,0.,4.8,0.,4.8
1979-07-15 03:10:18.540 ,2,0,1.,4.8,0.,4.8,0.,4.8,0.,4.8
1979-07-15 03:10:23.340 ,1,0,0.,4.8,0.,4.8,0.,4.8,0.,4.8
1979-07-15 03:10:28.140 ,1,0,0.,4.8,0.,4.8,0.,4.8,0.,4.8
1979-07-15 03:10:32.940 ,1,0,2.,4.8,0.,4.8,0.,4.8,0.,4.8
1979-07-15 03:10:37.740 ,1,0,1.,4.8,0.,4.8,0.,4.8,0.,4.8
1979-07-15 03:10:42.540 ,1,0,2.,4.8,0.,4.8,0.,4.8,0.,4.8
1979-07-15 03:10:47.340 ,1,0,2.,4.8,0.,4.8,0.,4.8,0.,4.8
1979-07-15 03:10:52.140 ,1,0,2.,4.8,0.,4.8,0.,4.8,1.,4.8
1979-07-15 03:10:56.940 ,1,0,0.,4.8,0.,4.8,0.,4.8,0.,4.8
1979-07-15 03:11:01.740 ,1,0,1.,4.8,0.,4.8,0.,4.8,0.,4.8
1979-07-15 03:11:06.540 ,1,0,3.,4.8,0.,4.8,0.,4.8,0.,4.8
1979-07-15 03:11:11.340 ,0,0,0.,4.8,0.,4.8,0.,4.8,0.,4.8
1979-07-15 03:11:16.140 ,0,0,1.,4.8,0.,4.8,0.,4.8,0.,4.8
1979-07-15 03:11:20.940 ,0,0,0.,4.8,0.,4.8,0.,4.8,0.,4.8
1979-07-15 03:11:25.740 ,0,0,0.,4.8,0.,4.8,0.,4.8,0.,4.8
1979-07-15 03:11:30.540 ,0,0,0.,4.8,0.,4.8,0.,4.8,0.,4.8
1979-07-15 03:11:35.340 ,0,0,1.,4.8,0.,4.8,0.,4.8,0.,4.8
1979-07-15 03:11:40.140 ,0,0,1.,4.8,0.,4.8,0.,4.8,0.,4.8
1979-07-15 03:11:44.940 ,0,0,1.,4.8,0.,4.8,0.,4.8,0.,4.8
1979-07-15 03:11:49.740 ,0,0,2.,4.8,0.,4.8,0.,4.8,1.,4.8
1979-07-15 03:11:54.540 ,0,0,0.,4.8,0.,4.8,0.,4.8,0.,4.8
1979-07-15 03:11:59.340 ,0,0,1.,4.8,0.,4.8,0.,4.8,0.,4.8
1979-07-15 03:12:04.140 ,0,0,2.,4.8,0.,4.8,0.,4.8,0.,4.8
1979-07-15 03:12:08.940 ,0,0,0.,4.8,0.,4.8,0.,4.8,0.,4.8
1979-07-15 03:12:13.740 ,0,0,0.,4.8,0.,4.8,0.,4.8,1.,4.8
1979-07-15 03:12:18.540 ,0,0,1.,4.8,0.,4.8,0.,4.8,0.,4.8
1979-07-15 03:12:23.340 ,0,0,0.,4.8,0.,4.8,0.,4.8,0.,4.8
1979-07-15 03:12:28.140 ,0,0,0.,4.8,0.,4.8,0.,4.8,0.,4.8
1979-07-15 03:12:32.940 ,0,0,0.,4.8,0.,4.8,0.,4.8,0.,4.8
1979-07-15 03:12:37.740 ,0,0,1.,4.8,0.,4.8,0.,4.8,0.,4.8
1979-07-15 03:12:42.540 ,0,0,0.,4.8,0.,4.8,0.,4.8,0.,4.8
1979-07-15 03:12:47.340 ,1,0,0.,4.8,0.,4.8,0.,4.8,0.,4.8
1979-07-15 03:12:52.140 ,1,0,3.,4.8,0.,4.8,0.,4.8,0.,4.8
1979-07-15 03:12:56.940 ,1,0,2.,4.8,0.,4.8,0.,4.8,0.,4.8
1979-07-15 03:13:01.740 ,1,0,0.,4.8,0.,4.8,0.,4.8,0.,4.8
1979-07-15 03:13:06.540 ,1,0,2.,4.8,0.,4.8,0.,4.8,0.,4.8
1979-07-15 03:13:11.340 ,1,0,2.,4.8,0.,4.8,0.,4.8,0.,4.8
1979-07-15 03:13:16.140 ,1,0,2.,4.8,0.,4.8,0.,4.8,0.,4.8
1979-07-15 03:13:20.940 ,1,0,0.,4.8,0.,4.8,0.,4.8,0.,4.8
1979-07-15 03:13:25.740 ,1,0,2.,4.8,0.,4.8,0.,4.8,0.,4.8
1979-07-15 03:13:30.540 ,1,0,1.,4.8,0.,4.8,0.,4.8,0.,4.8
1979-07-15 03:13:35.340 ,2,0,0.,4.8,0.,4.8,0.,4.8,0.,4.8
1979-07-15 03:13:40.140 ,2,0,0.,4.8,0.,4.8,0.,4.8,0.,4.8
1979-07-15 03:13:44.940 ,2,0,2.,4.8,0.,4.8,0.,4.8,0.,4.8
1979-07-15 03:13:49.740 ,2,0,3.,4.8,0.,4.8,0.,4.8,0.,4.8
1979-07-15 03:13:54.540 ,2,0,1.,4.8,0.,4.8,0.,4.8,0.,4.8
1979-07-15 03:13:59.340 ,2,0,1.,4.8,0.,4.8,0.,4.8,0.,4.8
1979-07-15 03:14:04.140 ,2,0,0.,4.8,0.,4.8,0.,4.8,1.,4.8
1979-07-15 03:14:08.940 ,2,0,0.,4.8,0.,4.8,0.,4.8,0.,4.8
1979-07-15 03:14:13.740 ,2,0,0.,4.8,0.,4.8,0.,4.8,0.,4.8
1979-07-15 03:14:18.540 ,2,0,1.,4.8,0.,4.8,0.,4.8,0.,4.8
1979-07-15 03:14:23.340 ,3,0,0.,4.8,0.,4.8,0.,4.8,0.,4.8
1979-07-15 03:14:28.140 ,3,0,2.,4.8,0.,4.8,0.,4.8,0.,4.8
1979-07-15 03:14:32.940 ,3,0,1.,4.8,0.,4.8,0.,4.8,0.,4.8
1979-07-15 03:14:37.740 ,3,0,2.,4.8,0.,4.8,0.,4.8,0.,4.8
1979-07-15 03:14:42.540 ,3,0,2.,4.8,0.,4.8,0.,4.8,1.,4.8
1979-07-15 03:14:47.340 ,3,0,2.,4.8,0.,4.8,0.,4.8,0.,4.8
1979-07-15 03:14:52.140 ,3,0,2.,4.8,0.,4.8,0.,4.8,0.,4.8
1979-07-15 03:14:56.940 ,3,0,1.,4.8,0.,4.8,0.,4.8,0.,4.8
1979-07-15 03:15:01.740 ,3,0,0.,4.8,0.,4.8,0.,4.8,1.,4.8
1979-07-15 03:15:06.540 ,3,0,0.,4.8,0.,4.8,0.,4.8,0.,4.8
1979-07-15 03:15:11.340 ,4,0,0.,4.8,0.,4.8,0.,4.8,0.,4.8
1979-07-15 03:15:16.140 ,4,0,1.,4.8,0.,4.8,0.,4.8,0.,4.8
1979-07-15 03:15:20.940 ,4,0,1.,4.8,0.,4.8,0.,4.8,0.,4.8
1979-07-15 03:15:25.740 ,4,0,2.,4.8,0.,4.8,0.,4.8,1.,4.8
1979-07-15 03:15:30.540 ,4,0,0.,4.8,0.,4.8,0.,4.8,0.,4.8
1979-07-15 03:15:35.340 ,4,0,1.,4.8,0.,4.8,0.,4.8,0.,4.8
1979-07-15 03:15:40.140 ,4,0,2.,4.8,0.,4.8,0.,4.8,0.,4.8
1979-07-15 03:15:44.940 ,4,0,0.,4.8,0.,4.8,0.,4.8,0.,4.8
1979-07-15 03:15:49.740 ,4,0,0.,4.8,0.,4.8,0.,4.8,0.,4.8
1979-07-15 03:15:54.540 ,4,0,2.,4.8,0.,4.8,0.,4.8,0.,4.8
1979-07-15 03:15:59.340 ,5,0,1.,4.8,0.,4.8,0.,4.8,0.,4.8
1979-07-15 03:16:04.140 ,5,0,2.,4.8,0.,4.8,0.,4.8,0.,4.8
1979-07-15 03:16:08.940 ,5,0,3.,4.8,0.,4.8,0.,4.8,0.,4.8
1979-07-15 03:16:13.740 ,5,0,0.,4.8,0.,4.8,0.,4.8,0.,4.8
1979-07-15 03:16:18.540 ,5,0,0.,4.8,0.,4.8,0.,4.8,1.,4.8
1979-07-15 03:16:23.340 ,5,0,1.,4.8,0.,4.8,0.,4.8,0.,4.8
1979-07-15 03:16:28.140 ,5,0,1.,4.8,0.,4.8,0.,4.8,0.,4.8
1979-07-15 03:16:32.940 ,5,0,0.,4.8,0.,4.8,0.,4.8,0.,4.8
1979-07-15 03:16:37.740 ,5,0,0.,4.8,0.,4.8,0.,4.8,0.,4.8
1979-07-15 03:16:42.540 ,5,0,0.,4.8,0.,4.8,0.,4.8,0.,4.8
1979-07-15 03:16:47.340 ,6,0,0.,4.8,0.,4.8,0.,4.8,0.,4.8
1979-07-15 03:16:52.140 ,6,0,0.,4.8,0.,4.8,0.,4.8,0.,4.8
1979-07-15 03:16:56.940 ,6,0,2.,4.8,0.,4.8,0.,4.8,0.,4.8
1979-07-15 03:17:01.740 ,6,0,0.,4.8,0.,4.8,0.,4.8,0.,4.8
1979-07-15 03:17:06.540 ,6,0,2.,4.8,0.,4.8,0.,4.8,0.,4.8
1979-07-15 03:17:11.340 ,6,0,0.,4.8,0.,4.8,0.,4.8,0.,4.8
1979-07-15 03:17:16.140 ,6,0,0.,4.8,0.,4.8,0.,4.8,0.,4.8
1979-07-15 03:17:20.940 ,6,0,1.,4.8,0.,4.8,0.,4.8,0.,4.8
1979-07-15 03:17:25.740 ,6,0,1.,4.8,0.,4.8,0.,4.8,0.,4.8
1979-07-15 03:17:30.540 ,6,0,1.,4.8,0.,4.8,0.,4.8,0.,4.8
1979-07-15 03:17:35.340 ,7,0,0.,4.8,0.,4.8,0.,4.8,0.,4.8
1979-07-15 03:17:40.140 ,7,0,2.,4.8,0.,4.8,0.,4.8,0.,4.8
1979-07-15 03:17:44.940 ,7,0,1.,4.8,0.,4.8,0.,4.8,0.,4.8
1979-07-15 03:17:49.740 ,7,0,0.,4.8,0.,4.8,0.,4.8,0.,4.8
1979-07-15 03:17:54.540 ,7,0,0.,4.8,0.,4.8,0.,4.8,0.,4.8
1979-07-15 03:17:59.340 ,7,0,1.,4.8,0.,4.8,0.,4.8,0.,4.8
1979-07-15 03:18:04.140 ,7,0,1.,4.8,0.,4.8,0.,4.8,0.,4.8
1979-07-15 03:18:08.940 ,7,0,0.,4.8,0.,4.8,0.,4.8,0.,4.8
1979-07-15 03:18:13.740 ,7,0,1.,4.8,0.,4.8,0.,4.8,0.,4.8
1979-07-15 03:18:18.540 ,7,0,0.,4.8,0.,4.8,0.,4.8,0.,4.8
1979-07-15 03:18:23.340 ,7,0,0.,4.8,0.,4.8,0.,4.8,0.,4.8
1979-07-15 03:18:28.140 ,7,0,1.,4.8,0.,4.8,0.,4.8,0.,4.8
1979-07-15 03:18:32.940 ,7,0,1.,4.8,0.,4.8,0.,4.8,0.,4.8
1979-07-15 03:18:37.740 ,7,0,0.,4.8,0.,4.8,0.,4.8,0.,4.8
1979-07-15 03:18:42.540 ,7,0,1.,4.8,0.,4.8,0.,4.8,0.,4.8
1979-07-15 03:18:47.340 ,7,0,2.,4.8,0.,4.8,0.,4.8,0.,4.8
1979-07-15 03:18:52.140 ,7,0,1.,4.8,0.,4.8,0.,4.8,0.,4.8
1979-07-15 03:18:56.940 ,7,0,0.,4.8,0.,4.8,0.,4.8,0.,4.8
1979-07-15 03:19:01.740 ,7,0,2.,4.8,0.,4.8,0.,4.8,0.,4.8
1979-07-15 03:19:06.540 ,7,0,2.,4.8,0.,4.8,0.,4.8,0.,4.8
1979-07-15 03:19:11.340 ,6,0,1.,4.8,0.,4.8,0.,4.8,0.,4.8
1979-07-15 03:19:16.140 ,6,0,0.,4.8,0.,4.8,0.,4.8,0.,4.8
1979-07-15 03:19:20.940 ,6,0,0.,4.8,0.,4.8,0.,4.8,0.,4.8
1979-07-15 03:19:25.740 ,6,0,2.,4.8,0.,4.8,0.,4.8,0.,4.8
1979-07-15 03:19:30.540 ,6,0,0.,4.8,0.,4.8,0.,4.8,0.,4.8
1979-07-15 03:19:35.340 ,6,0,3.,4.8,0.,4.8,0.,4.8,0.,4.8
1979-07-15 03:19:40.140 ,6,0,1.,4.8,0.,4.8,0.,4.8,0.,4.8
1979-07-15 03:19:44.940 ,6,0,1.,4.8,0.,4.8,0.,4.8,0.,4.8
1979-07-15 03:19:49.740 ,6,0,1.,4.8,0.,4.8,0.,4.8,0.,4.8
1979-07-15 03:19:54.540 ,6,0,0.,4.8,0.,4.8,0.,4.8,1.,4.8
1979-07-15 03:19:59.340 ,5,0,0.,4.8,0.,4.8,0.,4.8,0.,4.8
1979-07-15 03:20:04.140 ,5,0,3.,4.8,0.,4.8,0.,4.8,0.,4.8
1979-07-15 03:20:08.940 ,5,0,1.,4.8,0.,4.8,0.,4.8,0.,4.8
1979-07-15 03:20:13.740 ,5,0,2.,4.8,0.,4.8,0.,4.8,0.,4.8
1979-07-15 03:20:18.540 ,5,0,3.,4.8,0.,4.8,0.,4.8,0.,4.8
1979-07-15 03:20:23.340 ,5,0,4.,4.8,0.,4.8,0.,4.8,1.,4.8
1979-07-15 03:20:28.140 ,5,0,0.,4.8,0.,4.8,0.,4.8,1.,4.8
1979-07-15 03:20:32.940 ,5,0,5.,4.8,0.,4.8,0.,4.8,0.,4.8
1979-07-15 03:20:37.740 ,5,0,3.,4.8,0.,4.8,0.,4.8,0.,4.8
1979-07-15 03:20:42.540 ,5,0,1.,4.8,0.,4.8,0.,4.8,1.,4.8
1979-07-15 03:20:47.340 ,4,0,1.,4.8,0.,4.8,0.,4.8,0.,4.8
1979-07-15 03:20:52.140 ,4,0,0.,4.8,0.,4.8,0.,4.8,0.,4.8
1979-07-15 03:20:56.940 ,4,0,2.,4.8,0.,4.8,0.,4.8,0.,4.8
1979-07-15 03:21:01.740 ,4,0,0.,4.8,0.,4.8,0.,4.8,0.,4.8
1979-07-15 03:21:06.540 ,4,0,0.,4.8,0.,4.8,0.,4.8,0.,4.8
1979-07-15 03:21:11.340 ,4,0,0.,4.8,0.,4.8,0.,4.8,0.,4.8
1979-07-15 03:21:16.140 ,4,0,1.,4.8,0.,4.8,0.,4.8,0.,4.8
1979-07-15 03:21:20.940 ,4,0,3.,4.8,0.,4.8,0.,4.8,1.,4.8
1979-07-15 03:21:25.740 ,4,0,1.,4.8,0.,4.8,0.,4.8,0.,4.8
1979-07-15 03:21:30.540 ,4,0,3.,4.8,0.,4.8,0.,4.8,2.,4.8
1979-07-15 03:21:35.340 ,3,0,1.,4.8,0.,4.8,0.,4.8,0.,4.8
1979-07-15 03:21:40.140 ,3,0,1.,4.8,0.,4.8,0.,4.8,0.,4.8
1979-07-15 03:21:44.940 ,3,0,1.,4.8,0.,4.8,0.,4.8,0.,4.8
1979-07-15 03:21:49.740 ,3,0,3.,4.8,0.,4.8,0.,4.8,0.,4.8
1979-07-15 03:21:54.540 ,3,0,0.,4.8,0.,4.8,0.,4.8,0.,4.8
1979-07-15 03:21:59.340 ,3,0,0.,4.8,0.,4.8,0.,4.8,0.,4.8
1979-07-15 03:22:04.140 ,3,0,1.,4.8,0.,4.8,0.,4.8,0.,4.8
1979-07-15 03:22:08.940 ,3,0,2.,4.8,0.,4.8,0.,4.8,0.,4.8
1979-07-15 03:22:13.740 ,3,0,0.,4.8,0.,4.8,0.,4.8,0.,4.8
1979-07-15 03:22:18.540 ,3,0,1.,4.8,0.,4.8,0.,4.8,0.,4.8
1979-07-15 03:22:23.340 ,2,0,1.,4.8,0.,4.8,0.,4.8,0.,4.8
1979-07-15 03:22:28.140 ,2,0,2.,4.8,0.,4.8,0.,4.8,0.,4.8
1979-07-15 03:22:32.940 ,2,0,0.,4.8,0.,4.8,0.,4.8,0.,4.8
1979-07-15 03:22:37.740 ,2,0,1.,4.8,0.,4.8,0.,4.8,0.,4.8
1979-07-15 03:22:42.540 ,2,0,0.,4.8,0.,4.8,0.,4.8,0.,4.8
1979-07-15 03:22:47.340 ,2,0,3.,4.8,0.,4.8,0.,4.8,1.,4.8
1979-07-15 03:22:52.140 ,2,0,2.,4.8,0.,4.8,0.,4.8,0.,4.8
1979-07-15 03:22:56.940 ,2,0,0.,4.8,0.,4.8,0.,4.8,0.,4.8
1979-07-15 03:23:01.740 ,2,0,0.,4.8,0.,4.8,0.,4.8,0.,4.8
1979-07-15 03:23:06.540 ,2,0,1.,4.8,0.,4.8,0.,4.8,0.,4.8
1979-07-15 03:23:11.340 ,1,0,2.,4.8,0.,4.8,0.,4.8,0.,4.8
1979-07-15 03:23:16.140 ,1,0,0.,4.8,0.,4.8,0.,4.8,0.,4.8
1979-07-15 03:23:20.940 ,1,0,1.,4.8,0.,4.8,0.,4.8,0.,4.8
1979-07-15 03:23:25.740 ,1,0,4.,4.8,0.,4.8,0.,4.8,0.,4.8
1979-07-15 03:23:30.540 ,1,0,0.,4.8,0.,4.8,0.,4.8,0.,4.8
1979-07-15 03:23:35.340 ,1,0,2.,4.8,0.,4.8,0.,4.8,0.,4.8
1979-07-15 03:23:40.140 ,1,0,1.,4.8,0.,4.8,0.,4.8,1.,4.8
1979-07-15 03:23:44.940 ,1,0,0.,4.8,0.,4.8,0.,4.8,0.,4.8
1979-07-15 03:23:49.740 ,1,0,4.,4.8,0.,4.8,0.,4.8,0.,4.8
1979-07-15 03:23:54.540 ,1,0,2.,4.8,0.,4.8,0.,4.8,0.,4.8
1979-07-15 03:23:59.340 ,0,0,2.,4.8,0.,4.8,0.,4.8,0.,4.8
1979-07-15 03:24:04.140 ,0,0,1.,4.8,0.,4.8,0.,4.8,0.,4.8
1979-07-15 03:24:08.940 ,0,0,2.,4.8,0.,4.8,0.,4.8,0.,4.8
1979-07-15 03:24:13.740 ,0,0,0.,4.8,0.,4.8,0.,4.8,0.,4.8
1979-07-15 03:24:18.540 ,0,0,2.,4.8,0.,4.8,0.,4.8,0.,4.8
1979-07-15 03:24:23.340 ,0,0,0.,4.8,0.,4.8,0.,4.8,0.,4.8
1979-07-15 03:24:28.140 ,0,0,0.,4.8,0.,4.8,0.,4.8,0.,4.8
1979-07-15 03:24:32.940 ,0,0,2.,4.8,0.,4.8,0.,4.8,0.,4.8
1979-07-15 03:24:37.740 ,0,0,0.,4.8,0.,4.8,0.,4.8,0.,4.8
1979-07-15 03:24:42.540 ,0,0,1.,4.8,0.,4.8,0.,4.8,0.,4.8
1979-07-15 03:24:47.340 ,0,0,1.,4.8,0.,4.8,0.,4.8,0.,4.8
1979-07-15 03:24:52.140 ,0,0,2.,4.8,0.,4.8,0.,4.8,1.,4.8
1979-07-15 03:24:56.940 ,0,0,0.,4.8,0.,4.8,0.,4.8,0.,4.8
1979-07-15 03:25:01.740 ,0,0,3.,4.8,0.,4.8,0.,4.8,0.,4.8
1979-07-15 03:25:06.540 ,0,0,2.,4.8,0.,4.8,0.,4.8,0.,4.8
1979-07-15 03:25:11.340 ,0,0,3.,4.8,0.,4.8,0.,4.8,0.,4.8
1979-07-15 03:25:16.140 ,0,0,0.,4.8,0.,4.8,0.,4.8,0.,4.8
1979-07-15 03:25:20.940 ,0,0,1.,4.8,0.,4.8,0.,4.8,0.,4.8
1979-07-15 03:25:25.740 ,0,0,1.,4.8,0.,4.8,0.,4.8,0.,4.8
1979-07-15 03:25:30.540 ,0,0,3.,4.8,0.,4.8,0.,4.8,0.,4.8
1979-07-15 03:25:35.340 ,1,0,0.,4.8,0.,4.8,0.,4.8,0.,4.8
1979-07-15 03:25:40.140 ,1,0,1.,4.8,0.,4.8,0.,4.8,0.,4.8
1979-07-15 03:25:44.940 ,1,0,0.,4.8,0.,4.8,0.,4.8,0.,4.8
1979-07-15 03:25:49.740 ,1,0,3.,4.8,0.,4.8,0.,4.8,1.,4.8
1979-07-15 03:25:54.540 ,1,0,0.,4.8,0.,4.8,0.,4.8,0.,4.8
1979-07-15 03:25:59.340 ,1,0,2.,4.8,0.,4.8,0.,4.8,0.,4.8
1979-07-15 03:26:04.140 ,1,0,3.,4.8,0.,4.8,0.,4.8,0.,4.8
1979-07-15 03:26:08.940 ,1,0,1.,4.8,0.,4.8,0.,4.8,0.,4.8
1979-07-15 03:26:13.740 ,1,0,1.,4.8,0.,4.8,0.,4.8,0.,4.8
1979-07-15 03:26:18.540 ,1,0,2.,4.8,0.,4.8,0.,4.8,0.,4.8
1979-07-15 03:26:23.340 ,2,0,2.,4.8,0.,4.8,0.,4.8,0.,4.8
1979-07-15 03:26:28.140 ,2,0,0.,4.8,0.,4.8,0.,4.8,0.,4.8
1979-07-15 03:26:32.940 ,2,0,0.,4.8,0.,4.8,0.,4.8,0.,4.8
1979-07-15 03:26:37.740 ,2,0,3.,4.8,0.,4.8,0.,4.8,0.,4.8
1979-07-15 03:26:42.540 ,2,0,2.,4.8,0.,4.8,0.,4.8,0.,4.8
1979-07-15 03:26:47.340 ,2,0,1.,4.8,0.,4.8,0.,4.8,0.,4.8
1979-07-15 03:26:52.140 ,2,0,1.,4.8,0.,4.8,0.,4.8,0.,4.8
1979-07-15 03:26:56.940 ,2,0,5.,4.8,0.,4.8,0.,4.8,0.,4.8
1979-07-15 03:27:01.740 ,2,0,1.,4.8,0.,4.8,0.,4.8,0.,4.8
1979-07-15 03:27:06.540 ,2,0,1.,4.8,0.,4.8,0.,4.8,0.,4.8
1979-07-15 03:27:11.340 ,3,0,2.,4.8,0.,4.8,0.,4.8,0.,4.8
1979-07-15 03:27:16.140 ,3,0,0.,4.8,0.,4.8,0.,4.8,0.,4.8
1979-07-15 03:27:20.940 ,3,0,1.,4.8,0.,4.8,0.,4.8,1.,4.8
1979-07-15 03:27:25.740 ,3,0,2.,4.8,0.,4.8,0.,4.8,0.,4.8
1979-07-15 03:27:30.540 ,3,0,0.,4.8,0.,4.8,0.,4.8,0.,4.8
1979-07-15 03:27:35.340 ,3,0,1.,4.8,0.,4.8,0.,4.8,0.,4.8
1979-07-15 03:27:40.140 ,3,0,1.,4.8,0.,4.8,0.,4.8,0.,4.8
1979-07-15 03:27:44.940 ,3,0,0.,4.8,0.,4.8,0.,4.8,0.,4.8
1979-07-15 03:27:49.740 ,3,0,0.,4.8,0.,4.8,0.,4.8,0.,4.8
1979-07-15 03:27:54.540 ,3,0,0.,4.8,0.,4.8,0.,4.8,1.,4.8
1979-07-15 03:27:59.340 ,4,0,0.,4.8,0.,4.8,0.,4.8,0.,4.8
1979-07-15 03:28:04.140 ,4,0,3.,4.8,0.,4.8,0.,4.8,0.,4.8
1979-07-15 03:28:08.940 ,4,0,1.,4.8,0.,4.8,0.,4.8,0.,4.8
1979-07-15 03:28:13.740 ,4,0,1.,4.8,0.,4.8,0.,4.8,2.,4.8
1979-07-15 03:28:18.540 ,4,0,2.,4.8,0.,4.8,0.,4.8,1.,4.8
1979-07-15 03:28:23.340 ,4,0,0.,4.8,0.,4.8,0.,4.8,2.,4.8
1979-07-15 03:28:28.140 ,4,0,1.,4.8,0.,4.8,0.,4.8,0.,4.8
1979-07-15 03:28:32.940 ,4,0,0.,4.8,0.,4.8,0.,4.8,0.,4.8
1979-07-15 03:28:37.740 ,4,0,2.,4.8,0.,4.8,0.,4.8,0.,4.8
1979-07-15 03:28:42.540 ,4,0,2.,4.8,0.,4.8,0.,4.8,0.,4.8
1979-07-15 03:28:47.340 ,5,0,4.,4.8,0.,4.8,0.,4.8,0.,4.8
1979-07-15 03:28:52.140 ,5,0,3.,4.8,0.,4.8,0.,4.8,0.,4.8
1979-07-15 03:28:56.940 ,5,0,1.,4.8,0.,4.8,0.,4.8,1.,4.8
1979-07-15 03:29:01.740 ,5,0,1.,4.8,0.,4.8,0.,4.8,0.,4.8
1979-07-15 03:29:06.540 ,5,0,1.,4.8,0.,4.8,0.,4.8,0.,4.8
1979-07-15 03:29:11.340 ,5,0,0.,4.8,0.,4.8,0.,4.8,0.,4.8
1979-07-15 03:29:16.140 ,5,0,0.,4.8,0.,4.8,0.,4.8,0.,4.8
1979-07-15 03:29:20.940 ,5,0,1.,4.8,0.,4.8,0.,4.8,0.,4.8
1979-07-15 03:29:25.740 ,5,0,2.,4.8,0.,4.8,0.,4.8,0.,4.8
1979-07-15 03:29:30.540 ,5,0,2.,4.8,0.,4.8,0.,4.8,1.,4.8
1979-07-15 03:29:35.340 ,6,0,1.,4.8,0.,4.8,0.,4.8,0.,4.8
1979-07-15 03:29:40.140 ,6,0,0.,4.8,0.,4.8,0.,4.8,0.,4.8
1979-07-15 03:29:44.940 ,6,0,0.,4.8,0.,4.8,0.,4.8,1.,4.8
1979-07-15 03:29:49.740 ,6,0,1.,4.8,0.,4.8,0.,4.8,0.,4.8
1979-07-15 03:29:54.540 ,6,0,4.,4.8,0.,4.8,0.,4.8,0.,4.8
1979-07-15 03:29:59.340 ,6,0,1.,4.8,0.,4.8,0.,4.8,0.,4.8
1979-07-15 03:30:04.140 ,6,0,0.,4.8,0.,4.8,0.,4.8,0.,4.8
1979-07-15 03:30:08.940 ,6,0,1.,4.8,0.,4.8,0.,4.8,0.,4.8
1979-07-15 03:30:13.740 ,6,0,0.,4.8,0.,4.8,0.,4.8,0.,4.8
1979-07-15 03:30:18.540 ,6,0,1.,4.8,0.,4.8,0.,4.8,0.,4.8
1979-07-15 03:30:23.340 ,7,0,0.,4.8,0.,4.8,0.,4.8,0.,4.8
1979-07-15 03:30:28.140 ,7,0,3.,4.8,0.,4.8,0.,4.8,0.,4.8
1979-07-15 03:30:32.940 ,7,0,1.,4.8,0.,4.8,0.,4.8,0.,4.8
1979-07-15 03:30:37.740 ,7,0,0.,4.8,0.,4.8,0.,4.8,0.,4.8
1979-07-15 03:30:42.540 ,7,0,0.,4.8,0.,4.8,0.,4.8,0.,4.8
1979-07-15 03:30:47.340 ,7,0,0.,4.8,0.,4.8,0.,4.8,0.,4.8
1979-07-15 03:30:52.140 ,7,0,2.,4.8,0.,4.8,0.,4.8,0.,4.8
1979-07-15 03:30:56.940 ,7,0,0.,4.8,0.,4.8,0.,4.8,0.,4.8
1979-07-15 03:31:01.740 ,7,0,0.,4.8,0.,4.8,0.,4.8,0.,4.8
1979-07-15 03:31:06.540 ,7,0,0.,4.8,0.,4.8,0.,4.8,0.,4.8
1979-07-15 03:31:11.340 ,3,1,0.,4.8,0.,4.8,0.,4.8,0.,4.8
1979-07-15 03:31:16.140 ,3,1,1.,4.8,0.,4.8,0.,4.8,0.,4.8
1979-07-15 03:31:20.940 ,3,1,2.,4.8,0.,4.8,0.,4.8,1.,4.8
1979-07-15 03:31:25.740 ,3,1,0.,4.8,0.,4.8,0.,4.8,0.,4.8
1979-07-15 03:31:30.540 ,3,1,1.,4.8,0.,4.8,0.,4.8,0.,4.8
1979-07-15 03:31:35.340 ,0,1,1.,4.8,0.,4.8,0.,4.8,0.,4.8
1979-07-15 03:31:40.140 ,0,1,2.,4.8,0.,4.8,0.,4.8,1.,4.8
1979-07-15 03:31:44.940 ,0,1,2.,4.8,0.,4.8,0.,4.8,0.,4.8
1979-07-15 03:31:49.740 ,0,1,1.,4.8,0.,4.8,0.,4.8,1.,4.8
1979-07-15 03:31:54.540 ,0,1,1.,4.8,0.,4.8,0.,4.8,0.,4.8
1979-07-15 03:31:59.340 ,4,1,4.,4.8,0.,4.8,0.,4.8,0.,4.8
1979-07-15 03:32:04.140 ,4,1,1.,4.8,0.,4.8,0.,4.8,0.,4.8
1979-07-15 03:32:08.940 ,4,1,1.,4.8,0.,4.8,0.,4.8,0.,4.8
1979-07-15 03:32:13.740 ,4,1,2.,4.8,0.,4.8,0.,4.8,0.,4.8
1979-07-15 03:32:18.540 ,4,1,1.,4.8,0.,4.8,0.,4.8,0.,4.8
1979-07-15 03:32:23.340 ,7,1,1.,4.8,0.,4.8,0.,4.8,0.,4.8
1979-07-15 03:32:28.140 ,7,1,1.,4.8,0.,4.8,0.,4.8,0.,4.8
1979-07-15 03:32:32.940 ,7,1,4.,4.8,0.,4.8,0.,4.8,0.,4.8
1979-07-15 03:32:37.740 ,7,1,0.,4.8,0.,4.8,0.,4.8,0.,4.8
1979-07-15 03:32:42.540 ,7,1,0.,4.8,0.,4.8,0.,4.8,0.,4.8
1979-07-15 03:32:47.340 ,3,1,1.,4.8,0.,4.8,0.,4.8,0.,4.8
1979-07-15 03:32:52.140 ,3,1,0.,4.8,0.,4.8,0.,4.8,0.,4.8
1979-07-15 03:32:56.940 ,3,1,1.,4.8,0.,4.8,0.,4.8,0.,4.8
1979-07-15 03:33:01.740 ,3,1,2.,4.8,0.,4.8,0.,4.8,0.,4.8
1979-07-15 03:33:06.540 ,3,1,2.,4.8,0.,4.8,0.,4.8,0.,4.8
1979-07-15 03:33:11.340 ,0,1,1.,4.8,0.,4.8,0.,4.8,0.,4.8
1979-07-15 03:33:16.140 ,0,1,3.,4.8,0.,4.8,0.,4.8,1.,4.8